| time (UTC) | temp C | wind direction | speed KPH | gust KPH | rain 1hr cm | rain 24hr cm | rain mn cm | humidity % | barometer mb |
| 20260505171508 | 27 | 193 | 14.5 | 27.4 | 0.00 | 0.00 | 0.00 | 43 | 1006.5 |
| 20260505170007 | 27 | 165 | 11.3 | 29.0 | 0.00 | 0.00 | 0.00 | 45 | 1006.7 |
| 20260505164501 | 27 | 174 | 4.8 | 22.5 | 0.00 | 0.00 | 0.00 | 50 | 1006.8 |
| 20260505163059 | 27 | 182 | 16.1 | 25.7 | 0.00 | 0.00 | 0.00 | 43 | 1007.1 |
| 20260505161605 | 26 | 169 | 16.1 | 30.6 | 0.00 | 0.00 | 0.00 | 43 | 1007.4 |
| 20260505153101 | 26 | 197 | 12.9 | 20.9 | 0.00 | 0.00 | 0.00 | 47 | 1007.9 |
| 20260505151600 | 26 | 140 | 12.9 | 33.8 | 0.00 | 0.00 | 0.00 | 49 | 1007.8 |
| 20260505124523 | 18 | 164 | 9.7 | 22.5 | 0.00 | 0.00 | 0.00 | 67 | 1008.7 |
| 20260505123014 | 18 | 146 | 12.9 | 19.3 | 0.00 | 0.00 | 0.00 | 66 | 1008.9 |
| 20260505121512 | 17 | 173 | 9.7 | 17.7 | 0.00 | 0.00 | 0.00 | 69 | 1009.0 |
| 20260505120020 | 17 | 174 | 6.4 | 12.9 | 0.00 | 0.00 | 0.00 | 69 | 1009.1 |
| 20260505114506 | 16 | 153 | 8.0 | 16.1 | 0.00 | 0.00 | 0.00 | 70 | 1009.0 |
| 20260505113003 | 16 | 185 | 6.4 | 14.5 | 0.00 | 0.00 | 0.00 | 72 | 1008.7 |
| 20260505111503 | 15 | 159 | 8.0 | 14.5 | 0.00 | 0.00 | 0.00 | 74 | 1008.6 |
| 20260505101556 | 15 | 162 | 4.8 | 11.3 | 0.00 | 0.00 | 0.00 | 73 | 1008.1 |
| 20260505100054 | 15 | 185 | 4.8 | 16.1 | 0.00 | 0.00 | 0.00 | 73 | 1007.9 |
| 20260505094553 | 15 | 153 | 6.4 | 19.3 | 0.00 | 0.00 | 0.00 | 74 | 1007.9 |
| 20260505093058 | 15 | 145 | 3.2 | 17.7 | 0.00 | 0.00 | 0.00 | 74 | 1007.7 |
| 20260505091602 | 15 | 144 | 4.8 | 19.3 | 0.00 | 0.00 | 0.00 | 74 | 1007.7 |
| 20260505090050 | 15 | 150 | 4.8 | 17.7 | 0.00 | 0.00 | 0.00 | 74 | 1007.7 |
| 20260505084552 | 15 | 157 | 3.2 | 14.5 | 0.00 | 0.00 | 0.00 | 73 | 1007.7 |
| 20260505083054 | 15 | 158 | 3.2 | 12.9 | 0.00 | 0.00 | 0.00 | 72 | 1007.5 |
| 20260505081550 | 15 | 152 | 6.4 | 19.3 | 0.00 | 0.00 | 0.00 | 73 | 1007.5 |
| 20260505080049 | 15 | 123 | 8.0 | 17.7 | 0.00 | 0.00 | 0.00 | 74 | 1007.5 |
| 20260505074547 | 13 | 182 | 4.8 | 16.1 | 0.00 | 0.00 | 0.00 | 76 | 1007.5 |
| 20260505073147 | 13 | 160 | 3.2 | 14.5 | 0.00 | 0.00 | 0.00 | 76 | 1007.3 |
| 20260505071554 | 13 | 159 | 1.6 | 8.0 | 0.00 | 0.00 | 0.00 | 76 | 1007.3 |
| 20260505070041 | 13 | 171 | 3.2 | 9.7 | 0.00 | 0.00 | 0.00 | 76 | 1007.2 |
| 20260505064541 | 14 | 142 | 3.2 | 8.0 | 0.00 | 0.00 | 0.00 | 77 | 1007.2 |
| 20260505063038 | 14 | 159 | 4.8 | 9.7 | 0.00 | 0.00 | 0.00 | 77 | 1007.3 |
| 20260505061537 | 14 | 152 | 4.8 | 11.3 | 0.00 | 0.00 | 0.00 | 77 | 1007.5 |
| 20260505060045 | 14 | 162 | 1.6 | 11.3 | 0.00 | 0.00 | 0.00 | 75 | 1007.6 |
| 20260505054534 | 15 | 167 | 3.2 | 11.3 | 0.00 | 0.00 | 0.00 | 74 | 1007.6 |
| 20260505053030 | 15 | 150 | 3.2 | 9.7 | 0.00 | 0.00 | 0.00 | 72 | 1007.7 |
| 20260505051527 | 16 | 188 | 3.2 | 11.3 | 0.00 | 0.00 | 0.00 | 71 | 1007.7 |
| 20260505041521 | 16 | 166 | 4.8 | 19.3 | 0.00 | 0.00 | 0.00 | 70 | 1007.3 |
| 20260505040012 | 17 | 169 | 6.4 | 17.7 | 0.00 | 0.00 | 0.00 | 68 | 1007.3 |
| 20260505034511 | 17 | 184 | 4.8 | 11.3 | 0.00 | 0.00 | 0.00 | 67 | 1007.3 |
| 20260505033012 | 18 | 188 | 3.2 | 8.0 | 0.00 | 0.00 | 0.00 | 66 | 1007.3 |
| 20260505031507 | 18 | 172 | 6.4 | 14.5 | 0.00 | 0.00 | 0.00 | 65 | 1007.4 |
| 20260505030007 | 18 | 144 | 8.0 | 19.3 | 0.00 | 0.00 | 0.00 | 63 | 1007.4 |
| 20260505024509 | 18 | 160 | 8.0 | 17.7 | 0.00 | 0.00 | 0.00 | 65 | 1007.4 |
| 20260505023017 | 17 | 175 | 9.7 | 20.9 | 0.00 | 0.00 | 0.00 | 66 | 1007.5 |
| 20260505021506 | 17 | 165 | 6.4 | 16.1 | 0.00 | 0.00 | 0.00 | 67 | 1007.2 |
| 20260505020006 | 17 | 167 | 4.8 | 12.9 | 0.00 | 0.00 | 0.00 | 65 | 1007.2 |
| 20260505014511 | 18 | 163 | 6.4 | 9.7 | 0.00 | 0.00 | 0.00 | 64 | 1007.2 |
| 20260505013002 | 18 | 165 | 4.8 | 9.7 | 0.00 | 0.00 | 0.00 | 63 | 1007.1 |
| 20260505011502 | 19 | 164 | 3.2 | 14.5 | 0.00 | 0.00 | 0.00 | 60 | 1006.9 |
| 20260505010001 | 19 | 181 | 11.3 | 24.1 | 0.00 | 0.00 | 0.00 | 61 | 1006.7 |
| 20260505004501 | 19 | 172 | 8.0 | 19.3 | 0.00 | 0.00 | 0.00 | 57 | 1006.6 |
| 20260505003105 | 19 | 155 | 8.0 | 20.9 | 0.00 | 0.00 | 0.00 | 56 | 1006.3 |
| 20260505003001 | 19 | 169 | 8.0 | 20.9 | 0.00 | 0.00 | 0.00 | 56 | 1006.3 |
| 20260505001600 | 20 | 151 | 8.0 | 20.9 | 0.00 | 0.00 | 0.00 | 55 | 1006.2 |
| 20260505000108 | 20 | 151 | 4.8 | 16.1 | 0.00 | 0.00 | 0.00 | 53 | 1006.3 |
| 20260504234559 | 21 | 144 | 6.4 | 12.9 | 0.00 | 0.00 | 0.00 | 51 | 1006.2 |
| 20260504233106 | 21 | 151 | 8.0 | 16.1 | 0.00 | 0.00 | 0.00 | 49 | 1006.0 |
| 20260504231558 | 22 | 173 | 6.4 | 22.5 | 0.00 | 0.00 | 0.00 | 48 | 1006.0 |
| 20260504230104 | 22 | 167 | 8.0 | 22.5 | 0.00 | 0.00 | 0.00 | 46 | 1006.0 |
| 20260504224556 | 23 | 119 | 9.7 | 27.4 | 0.00 | 0.00 | 0.00 | 45 | 1006.1 |
| 20260504223101 | 23 | 147 | 11.3 | 24.1 | 0.00 | 0.00 | 0.00 | 44 | 1006.1 |
| 20260504221555 | 23 | 132 | 9.7 | 19.3 | 0.00 | 0.00 | 0.00 | 44 | 1006.2 |
| 20260504220056 | 23 | 145 | 11.3 | 29.0 | 0.00 | 0.00 | 0.00 | 43 | 1006.1 |
| 20260504214608 | 23 | 163 | 12.9 | 27.4 | 0.00 | 0.00 | 0.00 | 44 | 1006.1 |
| 20260504213059 | 23 | 173 | 9.7 | 24.1 | 0.00 | 0.00 | 0.00 | 44 | 1006.1 |
| 20260504211555 | 23 | 148 | 9.7 | 22.5 | 0.00 | 0.00 | 0.00 | 44 | 1006.2 |
| 20260504210052 | 23 | 150 | 11.3 | 20.9 | 0.00 | 0.00 | 0.00 | 42 | 1006.1 |
| 20260504204552 | 25 | 128 | 12.9 | 32.2 | 0.00 | 0.00 | 0.00 | 41 | 1006.2 |
| 20260504203048 | 25 | 165 | 9.7 | 24.1 | 0.00 | 0.00 | 0.00 | 44 | 1006.3 |
| 20260504201559 | 24 | 165 | 12.9 | 24.1 | 0.00 | 0.00 | 0.00 | 45 | 1006.5 |
| 20260504200046 | 25 | 180 | 14.5 | 25.7 | 0.00 | 0.00 | 0.00 | 42 | 1006.7 |
| 20260504194548 | 24 | 144 | 14.5 | 27.4 | 0.00 | 0.00 | 0.00 | 42 | 1007.0 |
| 20260504193038 | 23 | 117 | 9.7 | 20.9 | 0.00 | 0.00 | 0.00 | 44 | 1007.5 |
| 20260504191539 | 23 | 160 | 9.7 | 24.1 | 0.00 | 0.00 | 0.00 | 46 | 1007.7 |
| 20260504190035 | 23 | 195 | 9.7 | 27.4 | 0.00 | 0.00 | 0.00 | 44 | 1007.9 |
| 20260504184538 | 23 | 153 | 12.9 | 24.1 | 0.00 | 0.00 | 0.00 | 42 | 1008.2 |
| 20260504183030 | 23 | 173 | 6.4 | 19.3 | 0.00 | 0.00 | 0.00 | 45 | 1008.4 |
| 20260504181532 | 23 | 150 | 11.3 | 24.1 | 0.00 | 0.00 | 0.00 | 45 | 1008.7 |
| 20260504180025 | 23 | 149 | 11.3 | 20.9 | 0.00 | 0.00 | 0.00 | 45 | 1008.9 |
| 20260504174522 | 22 | 165 | 9.7 | 20.9 | 0.00 | 0.00 | 0.00 | 46 | 1009.0 |
| 20260504173019 | 22 | 173 | 3.2 | 25.7 | 0.00 | 0.00 | 0.00 | 42 | 1009.3 |